Theta_e
354 353 353 353 353 353 352 352 352 351 351 352 352 352 353 352 351 352 351 352 352 352 352 349 349 351 353 355 357 357 358 357 355 354 354 354 353 353 353 351 347 345
353 353 353 352 353 353 352 352 351 351 351 350 351 352 352 353 352 352 351 352 352 352 353 351 349 350 352 354 356 357 357 357 357 356 355 355 354 354 353 352 349 347
353 353 353 353 353 353 352 352 352 351 351 350 351 351 352 353 352 352 352 352 352 352 353 352 351 351 352 353 354 356 357 357 357 358 357 356 355 354 353 353 352 349
353 353 353 353 353 352 352 352 352 352 352 350 350 350 351 352 353 352 352 352 352 352 352 353 353 352 352 353 354 355 356 356 357 358 358 358 357 356 354 353 353 352
353 354 353 353 352 352 352 352 352 352 352 352 350 350 349 351 352 352 352 352 352 352 353 353 353 353 354 354 354 354 354 356 357 358 359 358 358 358 357 355 354 353
353 353 353 353 353 353 352 352 352 352 352 352 352 351 350 350 351 351 351 351 351 352 353 353 353 353 354 354 355 354 354 354 356 358 360 359 359 358 358 357 356 355
353 353 353 353 352 352 352 351 352 352 352 352 352 352 351 351 350 351 351 350 351 352 352 353 353 353 353 354 356 355 355 355 356 358 359 360 360 359 359 358 358 357
353 353 353 353 353 352 352 352 352 352 352 352 352 352 352 352 351 351 351 352 351 352 352 353 353 352 353 354 356 357 356 356 356 357 359 360 360 360 359 359 358 357
353 353 353 353 352 352 352 352 352 352 352 353 353 353 352 352 351 351 351 353 353 353 353 352 353 353 353 354 356 356 357 356 357 357 358 360 360 359 359 359 359 358
352 353 353 352 352 352 352 352 352 352 352 353 353 353 353 352 352 352 352 353 353 353 353 353 353 353 353 354 355 355 356 356 357 358 358 359 359 359 359 359 358 358
352 353 353 352 353 352 353 352 353 353 352 352 353 353 353 353 353 353 353 354 354 354 354 354 353 354 354 355 355 355 356 356 357 357 358 358 358 358 359 359 358 358
353 353 353 353 353 353 353 353 353 353 353 353 353 353 353 354 354 354 354 354 354 354 354 354 354 355 354 354 355 356 356 356 356 357 358 357 358 358 358 358 358 358
354 354 353 354 353 353 353 353 353 353 353 353 353 353 354 354 354 355 355 354 355 354 355 354 354 355 355 355 356 356 356 356 357 357 357 357 357 357 357 358 358 358
354 354 354 354 354 353 354 353 353 354 353 353 353 352 353 354 354 354 355 355 355 355 355 355 355 355 355 355 356 356 357 356 356 357 357 358 357 358 357 358 358 358
355 355 355 354 354 354 354 354 354 354 354 354 353 353 352 352 353 354 355 356 356 356 355 355 355 355 354 355 355 356 356 356 356 357 357 357 357 358 358 358 357 357
355 355 355 355 355 354 355 354 354 354 354 354 354 353 353 352 352 353 353 355 356 356 356 356 356 355 354 354 355 355 355 356 357 356 356 357 357 357 357 358 357 357
356 356 356 356 355 355 355 354 355 354 354 354 354 354 354 353 352 352 352 352 354 355 355 356 356 355 355 355 355 355 356 356 357 357 357 357 357 357 357 357 357 357
357 356 356 356 355 356 355 355 355 354 354 355 355 354 354 354 353 352 352 351 352 352 353 355 355 355 355 355 356 356 356 357 357 357 357 357 357 358 358 357 357 357
358 358 357 357 356 356 356 355 355 355 355 354 354 355 354 354 353 353 352 351 351 351 352 353 353 354 354 355 356 356 357 357 357 357 357 357 357 357 358 358 357 357
359 359 358 358 358 357 357 356 356 356 355 355 355 354 354 354 353 353 353 353 352 351 351 352 352 353 354 354 355 355 355 357 357 357 356 357 357 357 357 357 357 357
360 359 359 359 359 358 358 357 357 357 356 356 355 355 354 354 354 353 353 353 352 352 352 352 351 352 352 353 354 354 355 356 357 357 357 356 357 357 358 358 358 357
361 361 360 360 359 359 359 358 357 357 357 356 356 355 355 354 353 354 353 352 353 352 352 352 352 351 352 352 353 353 354 355 356 356 357 357 356 357 357 357 358 358
362 362 361 361 360 359 359 359 358 358 358 357 357 356 355 355 354 354 353 353 352 352 352 353 352 352 352 352 353 353 354 355 355 356 356 356 356 357 357 357 357 358
363 362 362 361 361 360 360 359 359 359 358 358 357 356 356 355 354 354 354 353 353 352 352 353 352 352 352 352 352 353 354 355 356 355 356 356 356 356 357 357 357 358
364 363 363 362 362 361 361 360 359 359 359 358 357 356 356 355 355 354 354 353 352 353 352 352 353 352 352 352 353 353 353 354 355 355 356 355 356 356 356 357 357 358
364 364 364 363 363 362 362 361 360 359 359 358 358 357 356 356 355 354 354 353 353 353 352 352 353 353 353 353 353 353 353 353 355 355 355 355 356 356 356 357 357 358
Wind_Speed
39 38 36 35 35 35 34 34 34 34 35 34 34 33 32 32 32 31 29 27 25 24 23 23 23 23 22 21 20 19 18 18 18 19 20 21 22 21 21 20 19 18
40 39 38 36 35 34 34 34 35 35 35 36 36 35 33 31 31 31 30 28 27 25 24 24 24 23 23 22 21 20 20 19 19 20 21 22 22 23 23 21 21 20
40 39 39 37 37 36 35 34 34 34 34 35 36 35 34 32 31 31 30 29 28 27 26 25 24 24 24 23 23 22 22 22 21 21 21 22 23 23 23 22 22 22
40 40 39 39 38 37 35 34 34 34 34 33 34 35 35 33 32 31 31 30 29 28 27 26 26 25 25 24 24 24 24 24 23 22 22 23 23 23 23 23 23 23
40 40 39 39 38 36 35 34 35 35 34 34 34 35 35 34 33 32 31 31 30 30 29 28 27 27 27 26 26 26 26 26 25 24 24 24 24 24 24 24 24 24
39 39 39 38 37 36 35 35 36 35 35 36 35 35 35 34 34 33 32 31 32 32 31 30 29 28 28 28 28 28 27 27 27 26 27 26 26 25 25 25 26 26
38 38 38 37 36 36 36 36 36 35 36 36 35 35 35 35 35 34 33 32 32 32 32 32 31 30 30 30 30 30 29 28 28 28 29 28 28 27 26 27 27 28
38 38 38 37 36 36 36 36 35 35 35 34 34 34 35 35 36 35 35 34 33 33 33 33 33 32 32 31 31 31 30 30 30 30 30 30 30 30 29 29 29 29
38 38 38 38 37 36 36 36 36 35 34 33 34 34 34 35 36 36 36 35 35 34 34 34 34 34 33 33 32 32 31 31 31 31 32 32 32 32 32 31 30 31
38 38 38 38 37 37 37 37 36 35 34 34 34 34 33 35 35 35 36 36 35 36 36 36 36 35 35 34 34 33 32 33 32 32 33 33 34 34 33 32 32 33
38 37 37 37 37 37 37 37 36 35 34 35 35 34 34 34 34 35 35 36 36 37 37 38 37 37 36 36 35 35 34 34 34 34 34 34 35 34 34 34 33 34
37 37 37 37 37 37 37 37 36 35 35 35 36 36 36 35 34 35 35 36 38 38 39 39 38 38 37 37 37 36 35 35 35 35 35 35 35 35 35 35 35 36
39 39 39 38 38 38 38 37 37 36 37 37 37 37 36 36 35 35 36 37 38 39 39 39 38 38 38 38 37 36 36 36 36 36 36 36 36 36 35 36 36 37
40 40 40 39 39 39 38 37 37 37 37 37 37 37 37 37 37 36 36 37 38 39 39 39 38 38 39 38 38 37 36 37 37 37 36 36 36 36 36 36 37 37
39 39 39 39 39 38 38 38 37 37 37 37 37 37 38 38 38 37 36 37 38 39 39 39 38 39 40 40 39 38 37 38 37 37 37 37 36 35 35 36 37 38
38 38 38 38 38 38 39 38 37 36 36 37 37 38 38 38 38 37 37 37 38 38 39 39 39 40 41 41 41 40 39 38 37 38 37 36 36 35 35 36 37 39
36 36 36 36 37 38 38 38 37 37 37 37 37 38 38 38 37 37 38 39 38 38 39 39 40 41 42 43 43 42 41 39 38 38 37 36 36 35 36 36 37 38
35 35 35 35 36 37 37 37 37 37 37 37 37 38 38 37 37 38 39 39 38 39 39 40 41 42 42 43 43 43 43 41 39 37 36 36 36 36 37 37 36 37
35 35 35 36 36 37 37 37 37 37 37 38 38 37 37 37 38 38 39 39 38 39 40 40 41 42 42 43 43 44 44 43 41 39 36 35 35 36 37 37 37 36
36 36 36 37 37 37 37 37 37 38 38 39 38 37 37 38 38 38 39 39 39 40 40 40 41 42 42 42 43 44 43 42 42 40 37 36 36 36 37 37 37 36
36 36 36 36 37 37 37 37 37 38 38 39 38 38 39 40 39 39 39 40 40 40 40 40 42 42 41 42 43 43 42 41 41 41 39 39 38 38 38 38 37 37
36 36 36 36 37 37 36 37 37 38 39 39 38 39 40 39 39 40 40 41 41 40 39 40 42 41 41 41 42 41 40 40 40 40 40 40 41 40 39 39 39 38
37 37 37 37 37 36 36 37 38 39 39 39 38 38 38 38 39 40 40 40 40 39 40 41 41 40 40 40 40 38 38 38 39 40 40 41 42 42 41 40 41 41
38 38 38 38 37 37 37 38 38 39 40 40 39 39 39 39 39 38 39 39 40 41 41 41 40 40 39 39 38 37 36 36 38 39 40 41 41 41 41 42 43 43
39 39 39 38 38 38 38 39 40 40 40 40 39 39 39 38 37 36 37 38 39 40 40 39 39 39 38 38 38 37 36 36 36 37 39 40 39 39 40 41 43 44
38 39 39 38 38 39 39 40 40 40 39 38 37 37 37 35 35 35 35 37 37 37 37 38 38 37 37 37 37 37 37 36 36 37 38 38 37 37 38 39 41 42
Wind_Direction
207 208 210 212 213 215 215 215 216 217 219 220 220 222 222 222 221 220 223 226 230 234 235 234 233 234 236 237 237 237 240 242 240 237 235 234 235 237 239 240 238 238
207 208 210 212 214 216 217 217 218 219 220 221 222 224 224 223 222 222 223 227 230 233 236 235 233 234 237 238 238 238 239 241 242 240 238 237 238 238 240 241 239 239
207 208 209 211 213 216 218 219 220 221 221 222 222 224 225 225 224 224 225 228 231 234 236 236 234 233 236 238 240 240 240 240 240 241 241 240 239 239 241 244 243 242
207 208 209 211 214 216 217 218 219 221 221 222 223 224 225 226 227 226 226 229 233 235 236 237 235 234 235 237 240 242 242 242 241 241 244 243 241 241 243 245 247 246
207 209 210 212 213 215 215 216 218 220 221 222 223 224 224 226 227 227 228 230 233 236 236 236 236 235 235 236 238 241 243 244 244 243 244 245 244 244 245 246 248 249
208 209 211 212 213 213 214 216 218 219 220 222 223 223 224 225 227 229 230 231 233 235 235 235 236 236 237 237 237 240 242 244 245 244 245 246 247 247 247 247 248 249
207 209 211 212 213 213 214 216 218 219 220 221 221 222 223 224 227 230 231 232 232 233 234 235 237 237 238 237 237 238 241 243 245 245 245 247 247 248 249 248 248 249
207 209 211 212 213 214 215 216 217 219 220 220 220 222 223 224 226 229 231 231 231 233 235 236 238 239 238 237 236 236 238 241 242 243 244 245 246 247 248 248 248 248
207 208 210 211 212 214 216 217 218 219 219 219 220 222 224 225 227 229 230 230 231 233 235 236 237 239 238 237 236 236 236 238 239 240 241 242 242 245 246 247 246 247
206 208 209 210 212 214 216 218 218 219 219 220 221 222 224 226 227 229 229 229 230 232 234 236 236 237 238 237 237 237 237 237 238 238 239 240 241 243 244 244 244 245
206 207 208 210 211 214 216 218 219 219 219 221 222 223 224 226 226 227 228 228 230 232 234 235 235 236 236 237 237 238 238 239 238 238 238 240 241 242 243 243 243 244
205 207 209 210 212 214 216 218 218 219 220 221 222 223 223 224 225 225 226 228 230 232 234 234 235 235 235 236 236 237 237 238 239 238 239 240 241 241 242 243 243 245
205 207 209 210 212 214 216 218 218 219 220 220 221 222 223 223 224 225 226 228 231 232 233 235 235 235 235 236 235 235 236 237 238 238 239 240 241 241 242 243 244 246
206 208 209 210 212 214 216 218 218 219 220 221 222 222 223 224 224 225 226 228 230 232 234 235 234 235 236 236 236 235 235 236 237 237 238 239 240 241 242 243 245 246
206 207 209 211 211 213 215 217 218 220 221 222 223 223 224 225 225 226 227 228 230 232 234 235 234 235 236 236 236 235 235 236 237 237 238 238 239 241 242 243 244 246
207 207 209 210 211 213 214 216 217 219 221 222 223 224 225 225 226 226 227 229 231 232 233 234 235 236 237 237 237 236 236 236 236 237 238 238 239 240 241 242 244 246
207 208 208 209 211 213 214 215 216 217 220 222 223 224 225 226 226 226 227 229 231 233 234 234 235 237 238 238 239 238 237 236 236 238 238 238 239 240 241 243 244 246
206 207 208 210 212 213 214 215 215 216 219 221 222 224 225 226 226 226 228 230 231 233 235 236 237 238 239 239 240 240 239 237 237 238 238 238 239 241 243 244 245 247
205 206 208 210 212 213 214 215 215 216 218 220 222 223 224 226 227 227 229 230 231 233 235 237 239 240 240 241 241 241 241 239 238 238 238 240 240 242 244 245 246 247
205 205 207 209 211 212 213 214 214 216 217 219 221 222 223 225 227 228 230 231 232 233 235 237 239 241 241 242 242 243 243 241 240 239 240 242 243 244 245 246 246 247
205 206 207 209 211 211 212 213 214 216 217 219 219 221 222 224 226 227 230 231 233 233 235 237 239 240 242 242 243 244 244 243 242 241 241 243 245 246 247 248 248 248
205 206 207 209 210 210 211 213 214 216 218 218 219 220 223 224 225 227 229 231 233 233 234 237 239 240 241 242 244 244 243 243 242 241 242 244 246 247 248 249 250 250
206 206 208 209 209 209 211 213 215 217 218 218 218 220 221 223 224 226 228 231 232 233 233 236 238 240 240 241 243 243 242 241 241 241 242 243 246 248 249 250 251 251
207 207 208 209 209 210 211 213 215 217 219 219 218 219 221 223 224 226 228 230 232 233 233 235 238 239 240 240 241 242 241 240 240 240 241 243 245 247 249 250 251 252
208 209 209 210 210 211 213 214 215 218 219 219 219 219 221 223 223 225 228 230 232 234 235 236 238 239 240 240 240 240 240 239 239 238 239 241 243 245 248 249 251 252
210 209 210 211 211 213 215 216 216 218 219 219 219 220 222 223 223 224 227 230 232 234 235 236 237 239 240 240 240 239 239 239 237 235 236 239 241 243 246 248 251 252